Hourly Data Report for January 21, 2022

EUREKA CLIMATE
NUNAVUT
Current Station Operator: ECCC - MSC

79°59'21.000" N
85°56'02.000" W
10.00 m
2401199
71613
NEK

Download Data

Hourly Data (January 2022)
Hourly Data Report for January 21, 2022
TIME
LST
Temp Definition
°C
Dew Point Definition
°C
Rel Hum Definition
%
Precip. Amount Definition
mm

Wind Dir Definition
10's deg

Wind Spd Definition
km/h
Visibility Definition
km
Stn Press Definition
kPa
Hmdx Definition


Wind Chill Definition


Weather Definition


00:00 -33.0 -36.1 73 0.0 35 LegendMM   99.18     LegendNANA
01:00 -35.1 -38.7 70 0.0 2 LegendMM   99.15     LegendNANA
02:00 -38.8 -42.7 67 0.0 10 LegendMM   99.17     LegendNANA
03:00 -36.8 -40.5 69 0.0 1 LegendMM   99.17     LegendNANA
04:00 -34.9 -38.4 71 0.0 35 LegendMM   99.20     LegendNANA
05:00 -36.7 -40.2 70 0.0 11 LegendMM   99.23     LegendNANA
06:00 -37.5 -41.3 68 0.0 2 LegendMM   99.23     LegendNANA
07:00 -34.0 -37.3 72 0.0 36 LegendMM   99.30     LegendNANA
08:00 -34.7 -37.9 73 0.0 8 LegendMM   99.32     LegendNANA
09:00 -37.2 -40.9 68 0.0 9 LegendMM   99.40     LegendNANA
10:00 -38.1 -42.0 67 0.0 4 LegendMM   99.47     LegendNANA
11:00 -37.6 -41.4 68 0.0 7 LegendMM   99.55     LegendNANA
12:00 -38.1 -41.9 67 0.0 7 LegendMM   99.64     LegendNANA
13:00 -37.6 -41.4 68 0.0 6 LegendMM   99.69     LegendNANA
14:00 -38.5 -42.3 67 0.0 3 LegendMM   99.75     LegendNANA
15:00 -37.8 -41.6 68 0.0 7 LegendMM   99.87     LegendNANA
16:00 -38.3 -42.1 67 0.0 8 LegendMM   99.93     LegendNANA
17:00 -37.8 -41.6 68 0.0 5 LegendMM   100.00     LegendNANA
18:00 -38.5 -42.3 67 0.0 15 LegendMM   100.12     LegendNANA
19:00 -39.5 -43.5 65 0.0 9 LegendMM   100.18     LegendNANA
20:00 -39.6 -43.6 66 0.0 11 LegendMM   100.21     LegendNANA
21:00 -39.0 -42.9 66 0.0 10 LegendMM   100.29     LegendNANA
22:00 -38.8 -42.8 66 0.0 5 LegendMM   100.35     LegendNANA
23:00 -38.5 -42.3 67 0.0 15 LegendMM   100.38     LegendNANA

Notes on Data Quality.

Legend

  • E = Estimated
  • M = Missing
  • NA = Not Available*
  • [empty] = Indicates an unobserved value
Date modified: